| time (UTC) | temp F | wind direction | speed MPH | gust MPH | rain 1hr in | rain 24hr in | rain mn in | humidity % | barometer mb |
| 20260504184611 | 63 | 65 | 4.0 | 0.0 | 0.00 | 0.00 | 0.02 | 87 | 1008.2 |
| 20260504183024 | 64 | 70 | 3.0 | 0.0 | 0.00 | 0.00 | 0.02 | 87 | 1008.0 |
| 20260504181504 | 64 | 67 | 3.0 | 0.0 | 0.00 | 0.00 | 0.02 | 87 | 1007.9 |
| 20260504180130 | 64 | 69 | 2.0 | 0.0 | 0.00 | 0.00 | 0.02 | 87 | 1008.1 |
| 20260504174611 | 64 | 60 | 4.0 | 0.0 | 0.00 | 0.00 | 0.02 | 86 | 1008.2 |
| 20260504173057 | 65 | 54 | 5.0 | 0.0 | 0.00 | 0.00 | 0.01 | 85 | 1008.4 |
| 20260504171510 | 65 | 59 | 7.0 | 0.0 | 0.00 | 0.00 | 0.00 | 83 | 1008.4 |
| 20260504170134 | 66 | 58 | 7.0 | 0.0 | 0.00 | 0.00 | 0.00 | 82 | 1008.5 |
| 20260504160136 | 66 | 360 | 6.0 | 0.0 | 0.00 | 0.00 | 0.00 | 84 | 1009.0 |
| 20260504150136 | 67 | 360 | 5.0 | 0.0 | 0.00 | 0.00 | 0.00 | 81 | 1008.9 |
| 20260504140138 | 70 | 87 | 12.0 | 0.0 | 0.00 | 0.00 | 0.00 | 70 | 1008.7 |
| 20260504130143 | 71 | 219 | 12.0 | 0.0 | 0.00 | 0.00 | 0.00 | 70 | 1008.8 |
| 20260504120140 | 70 | 90 | 8.0 | 0.0 | 0.00 | 0.00 | 0.00 | 69 | 1009.4 |
| 20260504110134 | 70 | 138 | 11.0 | 0.0 | 0.00 | 0.00 | 0.00 | 69 | 1009.7 |
| 20260504081616 | 68 | 102 | 5.0 | 0.0 | 0.00 | 0.00 | 0.00 | 69 | 1010.0 |
| 20260504070106 | 63 | 103 | 4.0 | 0.0 | 0.00 | 0.00 | 0.00 | 83 | 1010.3 |
| 20260504060115 | 59 | 122 | 0.0 | 0.0 | 0.00 | 0.00 | 0.00 | 88 | 1010.3 |
| 20260504050123 | 59 | 192 | 1.0 | 0.0 | 0.00 | 0.00 | 0.00 | 88 | 1010.5 |
| 20260504044602 | 59 | 193 | 2.0 | 0.0 | 0.00 | 0.00 | 0.00 | 88 | 1010.5 |
| 20260504043012 | 59 | 188 | 3.0 | 0.0 | 0.00 | 0.00 | 0.00 | 88 | 1010.5 |
| 20260504041635 | 59 | 179 | 2.0 | 0.0 | 0.00 | 0.00 | 0.00 | 88 | 1010.7 |
| 20260504040109 | 59 | 188 | 3.0 | 0.0 | 0.00 | 0.00 | 0.00 | 88 | 1010.8 |
| 20260504034518 | 59 | 181 | 3.0 | 0.0 | 0.00 | 0.00 | 0.00 | 88 | 1010.9 |
| 20260504033141 | 59 | 191 | 3.0 | 0.0 | 0.00 | 0.00 | 0.00 | 89 | 1011.0 |
| 20260504031628 | 59 | 208 | 3.0 | 0.0 | 0.00 | 0.00 | 0.00 | 89 | 1011.2 |
| 20260504030119 | 59 | 198 | 3.0 | 0.0 | 0.00 | 0.00 | 0.00 | 88 | 1011.3 |
| 20260504024516 | 59 | 185 | 3.0 | 0.0 | 0.00 | 0.00 | 0.00 | 88 | 1011.3 |
| 20260504023144 | 60 | 188 | 3.0 | 0.0 | 0.00 | 0.00 | 0.00 | 88 | 1011.4 |
| 20260504021625 | 60 | 220 | 1.0 | 0.0 | 0.00 | 0.00 | 0.00 | 88 | 1011.4 |
| 20260504020005 | 60 | 221 | 0.0 | 0.0 | 0.00 | 0.00 | 0.00 | 88 | 1011.5 |
| 20260504014634 | 60 | 221 | 0.0 | 0.0 | 0.00 | 0.00 | 0.00 | 88 | 1011.6 |
| 20260504013117 | 60 | 221 | 1.0 | 0.0 | 0.00 | 0.00 | 0.00 | 88 | 1011.6 |
| 20260504011529 | 60 | 221 | 0.0 | 0.0 | 0.00 | 0.00 | 0.00 | 88 | 1011.7 |
| 20260504010003 | 61 | 220 | 0.0 | 0.0 | 0.00 | 0.00 | 0.00 | 88 | 1011.7 |
| 20260504004639 | 61 | 221 | 0.0 | 0.0 | 0.00 | 0.00 | 0.00 | 88 | 1011.7 |
| 20260504003119 | 61 | 220 | 2.0 | 0.0 | 0.00 | 0.00 | 0.00 | 88 | 1011.9 |
| 20260504001607 | 61 | 226 | 2.0 | 0.0 | 0.00 | 0.00 | 0.00 | 88 | 1011.9 |
| 20260504000009 | 61 | 227 | 3.0 | 0.0 | 0.00 | 0.00 | 0.00 | 87 | 1012.1 |
| 20260503234642 | 61 | 239 | 3.0 | 0.0 | 0.00 | 0.00 | 0.00 | 87 | 1012.3 |
| 20260503233124 | 61 | 180 | 2.0 | 0.0 | 0.00 | 0.00 | 0.00 | 87 | 1012.5 |
| 20260503231605 | 61 | 166 | 1.0 | 0.0 | 0.00 | 0.00 | 0.00 | 87 | 1012.4 |
| 20260503230012 | 61 | 166 | 0.0 | 0.0 | 0.00 | 0.00 | 0.00 | 86 | 1012.7 |
| 20260503224621 | 61 | 167 | 0.0 | 0.0 | 0.00 | 0.00 | 0.00 | 86 | 1012.9 |
| 20260503223008 | 62 | 167 | 1.0 | 0.0 | 0.00 | 0.00 | 0.00 | 86 | 1013.1 |
| 20260503221625 | 62 | 166 | 2.0 | 0.0 | 0.00 | 0.00 | 0.00 | 86 | 1013.1 |
| 20260503220152 | 62 | 168 | 2.0 | 0.0 | 0.00 | 0.00 | 0.00 | 86 | 1013.1 |
| 20260503214612 | 62 | 181 | 2.0 | 0.0 | 0.00 | 0.00 | 0.00 | 85 | 1013.3 |
| 20260503213146 | 62 | 201 | 2.0 | 0.0 | 0.00 | 0.00 | 0.00 | 85 | 1013.4 |
| 20260503211521 | 62 | 206 | 0.0 | 0.0 | 0.00 | 0.00 | 0.00 | 85 | 1013.5 |
| 20260503210135 | 62 | 204 | 0.0 | 0.0 | 0.00 | 0.00 | 0.00 | 86 | 1013.6 |
| 20260503204526 | 62 | 204 | 1.0 | 0.0 | 0.00 | 0.00 | 0.00 | 86 | 1013.8 |
| 20260503203141 | 62 | 204 | 1.0 | 0.0 | 0.00 | 0.00 | 0.00 | 86 | 1013.7 |
| 20260503201528 | 62 | 204 | 2.0 | 0.0 | 0.00 | 0.00 | 0.00 | 86 | 1013.5 |
| 20260503200146 | 61 | 192 | 4.0 | 0.0 | 0.00 | 0.00 | 0.00 | 86 | 1013.3 |
| 20260503194627 | 61 | 194 | 3.0 | 0.0 | 0.00 | 0.00 | 0.00 | 86 | 1013.1 |
| 20260503193006 | 62 | 205 | 3.0 | 0.0 | 0.00 | 0.00 | 0.00 | 85 | 1012.9 |
| 20260503191634 | 62 | 199 | 3.0 | 0.0 | 0.00 | 0.00 | 0.00 | 85 | 1012.7 |
| 20260503190022 | 62 | 225 | 5.0 | 0.0 | 0.00 | 0.00 | 0.00 | 84 | 1012.8 |